Weather reports worldwide

Advertisment
Spadeadam, United Kingdom (3224): temperature & dewpoint: 17.09.2018 02:00:00 - 23.09.2018 02:00:00 (BST)Spadeadam, United Kingdom (3224): temperature -20cm: 17.09.2018 02:00:00 - 23.09.2018 02:00:00 (BST)Spadeadam, United Kingdom (3224): wind speed & gusts: 17.09.2018 02:00:00 - 23.09.2018 02:00:00 (BST)Spadeadam, United Kingdom (3224): wind direction: 17.09.2018 02:00:00 - 23.09.2018 02:00:00 (BST)Spadeadam, United Kingdom (3224): reduced air pressure: 17.09.2018 02:00:00 - 23.09.2018 02:00:00 (BST)Spadeadam, United Kingdom (3224): visibility: 17.09.2018 02:00:00 - 23.09.2018 02:00:00 (BST)Spadeadam, United Kingdom (3224): precipitation: 17.09.2018 02:00:00 - 23.09.2018 02:00:00 (BST)
Date & Time tt [°C] td [°C] tt -20cm [°C] ff [km/h] ff [kn] fx [km/h] fx [kn] dd ppp [hPa] vv [km] rr [mm]
23.09.2018 02:00:00 2,0 1,4 - 11 6 - - W 1016,7 10 0,0
23.09.2018 01:00:00 3,2 2,8 - 8 4 - - NW 1016,7 10 0,0
23.09.2018 00:00:00 3,6 2,2 - 15 8 - - W 1016,6 40 0,0
22.09.2018 23:00:00 2,2 1,2 - 9 5 - - WNW 1016,7 45 0,0
22.09.2018 22:00:00 3,6 3,2 - 8 4 - - W 1016,4 10 0,0
22.09.2018 21:00:00 4,6 4,1 - 15 8 - - W 1016,0 10 0,0
22.09.2018 20:00:00 4,9 3,9 - 11 6 - - W 1015,4 10 0,0
22.09.2018 19:00:00 7,3 5,0 - 13 7 - - W 1014,8 10 0,0
22.09.2018 18:00:00 9,6 6,0 - 16 9 - - SW 1014,2 10 0,0
22.09.2018 17:00:00 9,7 5,2 - 26 14 - - WSW 1014,5 10 0,0
22.09.2018 16:00:00 10,1 3,9 - 22 12 - - W 1014,3 40 0,0
22.09.2018 15:00:00 9,4 4,0 - 22 12 - - W 1014,6 10 0,0
22.09.2018 14:00:00 9,4 4,1 - 26 14 - - W 1014,9 10 0,0
22.09.2018 13:00:00 9,7 6,2 - 24 13 - - W 1014,7 10 0,0
22.09.2018 12:00:00 8,7 5,4 - 26 14 - - W 1014,6 10 0,0
22.09.2018 11:00:00 8,1 5,7 - 26 14 - - W 1014,2 10 0,0
22.09.2018 10:00:00 7,5 5,8 10,2 26 14 - - W 1014,1 19 0,0
22.09.2018 09:00:00 6,6 5,5 - 22 12 - - W 1013,8 10 0,0
22.09.2018 08:00:00 5,6 4,9 - 26 14 - - WSW 1013,4 10 0,0
22.09.2018 07:00:00 5,4 4,7 - 22 12 - - WSW 1013,3 10 0,0
22.09.2018 06:00:00 5,3 4,1 - 28 15 - - W 1012,9 21 0,0
22.09.2018 05:00:00 5,3 4,1 - 24 13 - - W 1012,6 18 0,0
22.09.2018 04:00:00 5,7 4,3 - 31 17 - - W 1012,4 10 0,0
22.09.2018 03:00:00 5,7 4,4 - 22 12 48 26 W 1012,5 10 0,0
22.09.2018 02:00:00 5,7 4,8 - 31 17 48 26 W 1011,6 10 0,0
22.09.2018 01:00:00 6,1 4,8 - 35 19 46 25 W 1011,5 10 0,0
22.09.2018 00:00:00 6,5 4,9 - 31 17 50 27 W 1011,1 50 0,0
21.09.2018 23:00:00 6,7 5,6 - 34 18 - - W 1010,4 10 0,0
21.09.2018 22:00:00 6,8 5,7 - 26 14 - - W 1009,9 10 0,0
21.09.2018 21:00:00 7,2 5,3 - 31 17 - - W 1009,2 10 0,0
21.09.2018 20:00:00 7,4 5,0 - 26 14 - - W 1008,3 10 0,0
21.09.2018 19:00:00 9,0 6,0 - 28 15 46 25 W 1006,8 10 0,0
21.09.2018 18:00:00 10,2 6,4 - 34 18 52 28 W 1005,4 10 0,0
21.09.2018 17:00:00 8,6 6,6 - 31 17 54 29 W 1004,0 10 1,6
21.09.2018 16:00:00 11,1 5,1 - 37 20 54 29 W 1002,0 10 0,0
21.09.2018 15:00:00 8,8 6,5 - 26 14 48 26 W 1001,0 50 0,0
21.09.2018 14:00:00 9,1 5,6 - 31 17 55 30 W 999,5 10 0,0
21.09.2018 13:00:00 10,2 6,8 - 39 21 65 35 WSW 998,0 10 0,0
21.09.2018 12:00:00 9,9 6,6 - 42 23 65 35 W 997,1 10 0,0
21.09.2018 11:00:00 8,6 6,1 - 39 21 61 33 W 996,9 10 0,0
21.09.2018 10:00:00 7,4 5,5 10,7 42 23 55 30 W 996,6 10 0,0
21.09.2018 09:00:00 6,2 5,5 - 35 19 48 26 W 996,0 50 0,0
21.09.2018 08:00:00 5,3 5,1 - 26 14 - - W 995,6 45 0,0
21.09.2018 07:00:00 4,6 4,4 - 35 19 - - W 994,5 50 0,0
21.09.2018 06:00:00 4,5 4,3 - 31 17 - - W 993,8 10 1,0
21.09.2018 05:00:00 4,4 4,2 - 28 15 - - W 993,0 10 2,6
21.09.2018 04:00:00 4,4 3,6 - 35 19 57 31 WNW 991,9 7 2,4
21.09.2018 03:00:00 3,9 3,2 - 35 19 57 31 NNW 990,7 1,7 1,2
21.09.2018 02:00:00 4,8 3,8 - 35 19 52 28 N 988,8 10 0,8
21.09.2018 01:00:00 6,1 5,7 - 29 16 54 29 NNE 988,6 10 1,2
21.09.2018 00:00:00 6,1 6,0 - 22 12 46 25 NE 990,8 10 4,8
20.09.2018 23:00:00 6,0 5,8 - 26 14 - - NE 992,6 10 3,4
20.09.2018 22:00:00 6,0 5,7 - 22 12 - - NNE 995,1 5 2,8
20.09.2018 21:00:00 6,2 5,9 - 15 8 - - NE 997,5 4,9 1,8
20.09.2018 20:00:00 7,1 6,7 - 18 10 - - ENE 998,1 5 0,6
20.09.2018 19:00:00 7,8 7,2 - 18 10 - - E 999,4 10 0,0
20.09.2018 18:00:00 8,6 7,9 - 11 6 - - E 1000,9 9 1,2
20.09.2018 17:00:00 9,1 7,3 - 4 2 - - E 1002,5 8 0,6
20.09.2018 16:00:00 10,1 6,3 - 8 4 - - SW 1003,5 10 0,0
20.09.2018 15:00:00 10,3 6,0 - 9 5 - - SW 1004,2 10 0,0
20.09.2018 14:00:00 10,6 5,9 - 21 11 - - WSW 1005,3 10 0,0
20.09.2018 13:00:00 10,7 6,2 - 26 14 - - SW 1006,0 10 0,0
20.09.2018 12:00:00 10,4 6,2 - 26 14 - - WSW 1006,3 10 0,0
20.09.2018 11:00:00 10,6 6,3 - 37 20 52 28 WSW 1006,4 10 0,0
20.09.2018 10:00:00 9,6 7,3 11,5 31 17 46 25 WSW 1006,8 13 0,0
20.09.2018 09:00:00 8,9 6,9 - 28 15 - - SW 1006,9 10 0,0
20.09.2018 08:00:00 7,7 6,5 - 24 13 - - WSW 1007,0 15 0,0
20.09.2018 07:00:00 7,4 6,4 - 22 12 - - SW 1006,8 10 0,8
20.09.2018 06:00:00 7,4 6,3 - 21 11 - - SW 1006,7 13 0,4
20.09.2018 05:00:00 7,9 6,5 - 24 13 - - SW 1006,6 3,5 0,0
20.09.2018 04:00:00 8,2 6,5 - 26 14 - - SW 1006,4 10 0,2
20.09.2018 03:00:00 8,1 6,2 - 28 15 46 25 WSW 1006,3 10 0,0
20.09.2018 02:00:00 8,1 6,1 - 34 18 57 31 WSW 1005,9 16 0,0
20.09.2018 01:00:00 8,6 5,4 - 34 18 46 25 SW 1005,8 25 0,0
20.09.2018 00:00:00 8,4 5,5 - 35 19 54 29 WSW 1005,5 10 0,0
19.09.2018 23:00:00 9,0 5,6 - 29 16 54 29 SW 1004,9 10 0,0
19.09.2018 22:00:00 9,1 4,8 - 39 21 59 32 WSW 1004,9 10 0,0
19.09.2018 21:00:00 9,4 5,1 - 39 21 61 33 WSW 1004,4 10 0,0
19.09.2018 20:00:00 9,1 5,2 - 41 22 55 30 WSW 1003,7 23 0,0
19.09.2018 19:00:00 8,1 5,9 - 41 22 74 40 WSW 1003,6 35 0,6
19.09.2018 18:00:00 10,7 5,4 - 48 26 87 47 WSW 1002,1 27 0,0
19.09.2018 17:00:00 11,2 6,0 - 55 30 93 50 WSW 1000,5 10 0,0
19.09.2018 16:00:00 11,3 5,7 - 57 31 94 51 SW 999,3 10 0,0
19.09.2018 15:00:00 11,5 6,2 - 63 34 115 62 WSW 998,0 10 0,0
19.09.2018 14:00:00 12,4 5,3 - 70 38 113 61 SW 996,1 10 0,0
19.09.2018 13:00:00 14,6 10,7 - 63 34 102 55 SW 993,5 10 3,2
19.09.2018 12:00:00 12,8 12,0 - 57 31 93 50 SSW 993,0 6 0,2
19.09.2018 11:00:00 15,8 10,9 - 57 31 85 46 SSW 993,5 21 0,0
19.09.2018 10:00:00 14,3 10,4 12,5 50 27 74 40 S 995,6 10 0,0
19.09.2018 09:00:00 12,9 9,9 - 42 23 63 34 S 998,1 29 0,0
19.09.2018 08:00:00 12,1 10,0 - 26 14 - - S 999,5 17 0,0
19.09.2018 07:00:00 11,2 8,7 - 29 16 - - SW 1001,1 10 0,0
19.09.2018 06:00:00 10,0 7,7 - 21 11 - - SW 1001,7 16 0,0
19.09.2018 05:00:00 11,1 7,8 - 34 18 48 26 WSW 1002,5 10 0,0
19.09.2018 04:00:00 11,9 8,3 - 31 17 48 26 SW 1002,9 16 0,0
19.09.2018 03:00:00 11,4 7,5 - 28 15 - - SW 1003,1 10 0,0
19.09.2018 02:00:00 12,0 8,0 - 29 16 - - SW 1002,3 10 0,0
19.09.2018 01:00:00 12,6 10,2 - 28 15 - - WSW 1001,7 14 0,0
19.09.2018 00:00:00 13,2 10,5 - 28 15 - - SW 1001,4 10 0,0
18.09.2018 23:00:00 13,7 11,7 - 16 9 48 26 SW 1001,0 10 0,0
18.09.2018 22:00:00 14,4 12,1 - 37 20 55 30 WSW 1000,8 10 0,0
18.09.2018 21:00:00 14,8 11,6 - 31 17 54 29 SW 1000,3 10 0,0
18.09.2018 20:00:00 15,0 11,9 - 39 21 52 28 SW 999,9 16 0,0
18.09.2018 19:00:00 15,1 12,3 - 29 16 - - SW 999,8 10 0,0
18.09.2018 18:00:00 15,2 12,2 - 34 18 63 34 WSW 999,9 10 0,0
18.09.2018 17:00:00 14,4 12,8 - 41 22 63 34 WSW 999,6 10 0,0
18.09.2018 16:00:00 13,7 11,9 - 31 17 68 37 SW 999,7 10 0,0
18.09.2018 15:00:00 13,9 11,5 - 50 27 72 39 WSW 999,5 10 0,0
18.09.2018 14:00:00 14,3 11,9 - 42 23 74 40 WSW 998,8 10 0,0
18.09.2018 13:00:00 14,6 14,4 - 50 27 68 37 WSW 996,7 8 0,4
18.09.2018 12:00:00 15,1 15,0 - 42 23 70 38 WSW 995,5 0,2 0,2
18.09.2018 11:00:00 15,2 15,0 - 34 18 50 27 WSW 994,6 6 0,2
18.09.2018 10:00:00 13,2 13,1 12,7 4 2 - - N 993,9 8 0,2
18.09.2018 09:00:00 12,4 12,1 - 8 4 - - ENE 994,0 2,3 1,4
18.09.2018 08:00:00 13,8 13,0 - 9 5 - - ESE 994,0 6 1,0
18.09.2018 07:00:00 13,1 12,1 - 9 5 - - E 994,7 7 1,4
18.09.2018 06:00:00 14,3 12,0 - 15 8 - - ESE 995,2 10 0,0
18.09.2018 05:00:00 13,6 10,9 - 21 11 - - SSE 996,5 10 0,0
18.09.2018 04:00:00 12,8 10,8 - 9 5 - - SSE 998,2 10 0,0
18.09.2018 03:00:00 12,1 10,9 - 5 3 - - S 999,5 25 0,0
18.09.2018 02:00:00 13,1 11,8 - 15 8 - - SSW 1000,4 27 0,0
18.09.2018 01:00:00 13,6 12,6 - 11 6 - - SSW 1001,1 23 0,0
18.09.2018 00:00:00 14,4 13,4 - 15 8 - - W 1001,6 21 0,0
17.09.2018 23:00:00 15,1 13,8 - 22 12 - - SSW 1002,1 10 0,0
17.09.2018 22:00:00 15,6 13,4 - 24 13 - - SW 1002,8 10 0,0
17.09.2018 21:00:00 15,8 13,4 - 28 15 - - SW 1003,2 40 0,0
17.09.2018 20:00:00 16,1 13,9 - 24 13 46 25 SSW 1003,5 10 0,0
17.09.2018 19:00:00 16,6 13,7 - 22 12 - - SW 1003,6 45 0,0
17.09.2018 18:00:00 16,7 14,7 - 22 12 - - SSW 1004,0 10 0,0
17.09.2018 17:00:00 15,8 15,0 - 22 12 - - SW 1004,8 10 0,0
17.09.2018 16:00:00 16,5 14,0 - 34 18 46 25 SSW 1005,5 10 0,0
17.09.2018 15:00:00 16,0 13,3 - 29 16 - - SSW 1006,4 10 0,0
17.09.2018 14:00:00 16,8 12,9 - 29 16 - - SSW 1007,2 10 0,0
17.09.2018 13:00:00 15,2 10,4 - 21 11 - - SSW 1008,0 10 0,0
17.09.2018 12:00:00 14,0 10,6 - 16 9 - - S 1009,4 10 0,0
17.09.2018 11:00:00 12,7 10,5 - 16 9 - - S 1010,4 10 0,0
17.09.2018 10:00:00 12,8 11,2 12,0 18 10 - - S 1010,4 10 0,0
17.09.2018 09:00:00 11,1 10,2 - 5 3 - - SE 1011,5 10 0,0
17.09.2018 08:00:00 9,8 9,7 - 9 5 - - WSW 1011,7 10 0,0
17.09.2018 07:00:00 9,5 9,3 - 13 7 - - WSW 1012,1 12 0,0
17.09.2018 06:00:00 8,9 8,6 - 11 6 - - SSW 1012,4 5 0,0
17.09.2018 05:00:00 10,7 9,9 - 15 8 - - SW 1012,4 19 0,0
17.09.2018 04:00:00 10,5 9,8 - 13 7 - - SW 1012,7 25 0,0
17.09.2018 03:00:00 10,8 9,7 - 13 7 - - SW 1012,9 27 0,0
17.09.2018 02:00:00 10,7 9,5 - 15 8 - - SW 1013,1 30 0,0

tt = temperature
td = dewpoint
tt -20cm = temperature -20cm
ff = wind speed
fx = gusts
dd = wind direction
ppp = reduced air pressure
vv = visibility
rr = precipitation

Next stations